Retour au catalogue

FENGYUN 1C DEB

ActifPO
NORAD 33601·DEBRIS·🇨🇳 China

Lancé May 10, 1999 depuis Taiyuan Satellite Launch Center

Loading…

Prochains Passages (prochaines 24 heures)

TLE

FraisSource: Space-Track

Époque: Sep 13, 2026, 07:46 UTC

1 33601U 99025DCJ 26256.32417108  .00001224  00000-0  65110-3 0  9990
2 33601  98.3426  36.7038 0156554  77.9439 283.9228 14.08987759945458

Suivez FENGYUN 1C DEB en temps réel avec AllMySat

Download on the App Store